19:49
Airports
History
Links
Donate
Help keep this website running!
PayPal
Bitcoin
This page is community maintained. The information is intended for PC simulator navigation or reference.
Always use approved charts for navigation.
3MN8
Aysta Field
Aysta Field (3MN8)
St Cloud, Minnesota, United States (56304)
4
Lat/Lng:45° 31' 21.87" N / 94° 7' 21.95" W
45.522743 / -94.122765
Elevation:1024'ft / 312mMSL
ID / ICAO:3MN8
Runways:1
Longest:09-27
Grass 370m / 1,214ft
Nearby Weather18:53 GMT 2017-12-12
Nearby weather at KSTC, St Cloud Rgnl located 3.5 nautical miles from 3MN8
Altimeter: 30.02
Visibility: 8.0 statute miles
Wind: 7 knots (from 180°)
Temp: -8°c / 18°f
Humidity: 78.9%

METAR: KSTC 121853Z 18007KT 8SM FEW020 BKN028 OVC032 M08/M11 A3002 RMK AO2 SNE52 SLP195 P0001 T10831111

(Powered by phpweather)
Nearby VORs <50NM
Nearby NDBs
Runway 09 / 27
Dimensions:370.1 x 30.5m 1214' x 100'ft
Surface:Grass
Runway 09 [A]Runway 27 [B]
Heading:093°TH 273°TH
Lat:
Lng:
45° 31' 22.29"N
94° 7' 30.39"W
45° 31' 21.46"N
94° 7' 13.52"W
User Notes and Comments
45° 31' 21.87" N / 94° 7' 21.95" W
Distance To
Airport ID:
Nearby Airports
(C) St Cloud Rgnl 3.5 NM
KSTC ( WX ) ENE 61°
4 Thens Private Airstrip 6.1 NM
MN97 NW 319°
4 Guggenberger 7.1 NM
MY47 NW 323°
4 Leaders Clear Lake 9.1 NM
8Y6 SE 126°
4 Little Rock Rock Port 14.3 NM
3MN5 NNW 346°
(R) Schroeder 14.3 NM
MN79 ESE 116°
4 Dons Landing Field 17.2 NM
32MN SW 231°
VFR Chart
Flight Planning at SkyVector.com